Time,TemperatureF,DewpointF,PressureIn,WindDirection,WindDirectionDegrees,WindSpeedMPH,WindSpeedGustMPH,Humidity,HourlyPrecipIn,Conditions,Clouds,dailyrainin,SoftwareType,DateUTC
2014-01-10 00:00:00,17.0,14.6,29.88,WSW,255,3.0,8.0,90,0.00,-SN,,0.00,WeatherDisplay:10.37,2014-01-10 06:00:00,
2014-01-10 00:10:00,17.3,15.1,29.87,SSW,207,3.0,12.0,91,0.00,-SN,,0.00,WeatherDisplay:10.37,2014-01-10 06:10:00,
2014-01-10 00:15:00,17.4,15.2,29.87,SW,216,2.0,9.0,91,0.00,-SN,,0.00,WeatherDisplay:10.37,2014-01-10 06:15:00,
2014-01-10 00:20:00,17.4,15.2,29.87,SSW,192,2.0,10.0,91,0.00,-SN,,0.00,WeatherDisplay:10.37,2014-01-10 06:20:00,
2014-01-10 00:25:00,17.5,15.3,29.87,SW,216,2.0,9.0,91,0.00,-SN,,0.00,WeatherDisplay:10.37,2014-01-10 06:25:00,
2014-01-10 00:30:00,17.7,15.5,29.86,SW,224,3.0,14.0,91,0.00,-SN,,0.00,WeatherDisplay:10.37,2014-01-10 06:30:00,
2014-01-10 00:40:00,17.9,15.7,29.86,West,260,1.0,12.0,91,0.00,-SN,,0.00,WeatherDisplay:10.37,2014-01-10 06:40:00,
2014-01-10 00:45:00,17.9,15.8,29.87,WSW,253,2.0,12.0,91,0.00,-SN,,0.00,WeatherDisplay:10.37,2014-01-10 06:45:00,
2014-01-10 00:50:00,18.1,15.9,29.86,SW,225,2.0,7.0,91,0.00,-SN,,0.00,WeatherDisplay:10.37,2014-01-10 06:50:00,
2014-01-10 01:00:00,18.3,16.1,29.86,SSW,207,5.0,8.0,91,0.00,-SN,,0.00,WeatherDisplay:10.37,2014-01-10 07:00:00,
2014-01-10 01:10:00,18.4,16.2,29.86,SW,218,3.0,10.0,91,0.00,-SN,,0.00,WeatherDisplay:10.37,2014-01-10 07:10:00,
2014-01-10 01:15:00,18.5,16.6,29.86,South,191,2.0,10.0,92,0.00,-SN,,0.00,WeatherDisplay:10.37,2014-01-10 07:15:00,
2014-01-10 01:20:00,18.7,16.5,29.86,SW,235,3.0,8.0,91,0.00,-SN,,0.00,WeatherDisplay:10.37,2014-01-10 07:20:00,
2014-01-10 01:30:00,18.9,16.7,29.86,SSW,210,3.0,9.0,91,0.00,-SN,,0.00,WeatherDisplay:10.37,2014-01-10 07:30:00,
2014-01-10 01:40:00,19.0,16.8,29.85,SW,231,1.0,12.0,91,0.00,-SN,,0.00,WeatherDisplay:10.37,2014-01-10 07:40:00,
2014-01-10 01:45:00,19.0,16.8,29.85,WSW,241,1.0,7.0,91,0.00,-SN,,0.00,WeatherDisplay:10.37,2014-01-10 07:45:00,
2014-01-10 01:50:00,19.1,16.9,29.85,SW,215,2.0,9.0,91,0.00,-SN,,0.00,WeatherDisplay:10.37,2014-01-10 07:50:00,
2014-01-10 02:00:00,19.2,17.0,29.85,SW,236,2.0,8.0,91,0.00,-SN,,0.00,WeatherDisplay:10.37,2014-01-10 08:00:00,
2014-01-10 02:05:00,19.3,17.1,29.85,SW,234,2.0,12.0,91,0.00,-SN,,0.00,WeatherDisplay:10.37,2014-01-10 08:05:00,
2014-01-10 02:10:00,19.3,17.1,29.85,West,278,2.0,7.0,91,0.00,-SN,,0.00,WeatherDisplay:10.37,2014-01-10 08:10:00,
2014-01-10 02:15:00,19.4,17.2,29.85,SW,231,3.0,9.0,91,0.00,-SN,,0.00,WeatherDisplay:10.37,2014-01-10 08:15:00,
2014-01-10 02:20:00,19.5,17.3,29.85,SSW,213,3.0,12.0,91,0.00,-SN,,0.00,WeatherDisplay:10.37,2014-01-10 08:20:00,
2014-01-10 02:30:00,19.6,17.4,29.85,WSW,248,6.0,12.0,91,0.00,-SN,,0.00,WeatherDisplay:10.37,2014-01-10 08:30:00,
2014-01-10 02:40:00,19.6,17.4,29.85,SW,216,1.0,8.0,91,0.00,-SN,,0.00,WeatherDisplay:10.37,2014-01-10 08:40:00,
2014-01-10 02:45:00,19.7,17.5,29.85,SSE,152,3.0,10.0,91,0.00,-SN,,0.00,WeatherDisplay:10.37,2014-01-10 08:45:00,
2014-01-10 02:50:00,19.8,17.6,29.84,SSW,211,2.0,8.0,91,0.00,-SN,,0.00,WeatherDisplay:10.37,2014-01-10 08:50:00,
2014-01-10 03:00:00,20.0,17.8,29.84,WSW,244,1.0,8.0,91,0.00,-SN,,0.00,WeatherDisplay:10.37,2014-01-10 09:00:00,
2014-01-10 03:10:00,20.0,17.8,29.84,West,267,1.0,9.0,91,0.00,-SN,,0.00,WeatherDisplay:10.37,2014-01-10 09:10:00,
2014-01-10 03:15:00,20.0,17.8,29.84,WNW,285,2.0,10.0,91,0.00,-SN,,0.00,WeatherDisplay:10.37,2014-01-10 09:15:00,
2014-01-10 03:20:00,20.1,17.8,29.84,SSE,168,3.0,8.0,91,0.00,-SN,,0.00,WeatherDisplay:10.37,2014-01-10 09:20:00,
2014-01-10 03:25:00,20.0,17.8,29.84,SSW,212,2.0,8.0,91,0.00,-SN,,0.00,WeatherDisplay:10.37,2014-01-10 09:25:00,
2014-01-10 03:30:00,20.0,18.1,29.84,WSW,240,3.0,10.0,92,0.00,-SN,,0.00,WeatherDisplay:10.37,2014-01-10 09:30:00,
2014-01-10 03:40:00,20.1,18.1,29.83,SSW,194,2.0,12.0,92,0.00,-SN,,0.00,WeatherDisplay:10.37,2014-01-10 09:40:00,
2014-01-10 03:45:00,20.0,18.1,29.83,South,186,1.0,6.0,92,0.00,-SN,,0.00,WeatherDisplay:10.37,2014-01-10 09:45:00,
2014-01-10 03:50:00,20.1,18.1,29.83,SW,228,5.0,12.0,92,0.00,-SN,,0.00,WeatherDisplay:10.37,2014-01-10 09:50:00,
2014-01-10 04:00:00,20.1,18.4,29.83,SW,216,2.0,7.0,93,0.00,-SN,,0.00,WeatherDisplay:10.37,2014-01-10 10:00:00,
2014-01-10 04:10:00,20.0,18.3,29.82,WSW,242,2.0,9.0,93,0.00,-SN,,0.00,WeatherDisplay:10.37,2014-01-10 10:10:00,
2014-01-10 04:15:00,19.9,18.2,29.82,West,262,2.0,8.0,93,0.00,-SN,,0.00,WeatherDisplay:10.37,2014-01-10 10:15:00,
2014-01-10 04:20:00,19.8,18.4,29.82,WSW,241,1.0,7.0,94,0.00,-SN,,0.00,WeatherDisplay:10.37,2014-01-10 10:20:00,
2014-01-10 04:30:00,19.7,18.3,29.81,SW,229,3.0,10.0,94,0.00,-SN,,0.00,WeatherDisplay:10.37,2014-01-10 10:30:00,
2014-01-10 04:40:00,19.6,18.2,29.81,WNW,286,1.0,8.0,94,0.00,-SN,,0.00,WeatherDisplay:10.37,2014-01-10 10:40:00,
2014-01-10 04:45:00,19.5,18.1,29.81,West,262,2.0,6.0,94,0.00,-SN,,0.00,WeatherDisplay:10.37,2014-01-10 10:45:00,
2014-01-10 04:50:00,19.4,18.0,29.81,SW,225,3.0,8.0,94,0.00,-SN,,0.00,WeatherDisplay:10.37,2014-01-10 10:50:00,
2014-01-10 05:00:00,19.3,17.9,29.81,West,262,2.0,9.0,94,0.00,-SN,,0.00,WeatherDisplay:10.37,2014-01-10 11:00:00,
2014-01-10 05:10:00,19.2,17.8,29.81,WNW,296,1.0,7.0,94,0.00,-SN,,0.00,WeatherDisplay:10.37,2014-01-10 11:10:00,
2014-01-10 05:15:00,19.2,17.7,29.80,SW,233,1.0,5.0,94,0.00,-SN,,0.00,WeatherDisplay:10.37,2014-01-10 11:15:00,
2014-01-10 05:20:00,19.1,17.7,29.80,SW,220,3.0,10.0,94,0.00,-SN,,0.00,WeatherDisplay:10.37,2014-01-10 11:20:00,
2014-01-10 05:30:00,19.1,17.7,29.80,SW,221,1.0,7.0,94,0.00,-SN,,0.00,WeatherDisplay:10.37,2014-01-10 11:30:00,
2014-01-10 05:40:00,19.1,17.7,29.79,NNW,343,2.0,8.0,94,0.00,-SN,,0.00,WeatherDisplay:10.37,2014-01-10 11:40:00,
2014-01-10 05:45:00,19.1,17.7,29.79,SE,133,2.0,7.0,94,0.00,-SN,,0.00,WeatherDisplay:10.37,2014-01-10 11:45:00,
2014-01-10 05:50:00,19.2,17.8,29.79,SW,214,2.0,7.0,94,0.00,-SN,,0.00,WeatherDisplay:10.37,2014-01-10 11:50:00,
2014-01-10 06:00:00,19.2,17.8,29.78,West,271,2.0,7.0,94,0.00,-SN,,0.00,WeatherDisplay:10.37,2014-01-10 12:00:00,
2014-01-10 06:10:00,19.3,17.8,29.78,WSW,242,1.0,5.0,94,0.00,-SN,,0.00,WeatherDisplay:10.37,2014-01-10 12:10:00,
2014-01-10 06:15:00,19.3,17.9,29.78,WSW,256,2.0,7.0,94,0.00,-SN,,0.00,WeatherDisplay:10.37,2014-01-10 12:15:00,
2014-01-10 06:20:00,19.3,17.9,29.78,West,271,3.0,8.0,94,0.00,-SN,,0.00,WeatherDisplay:10.37,2014-01-10 12:20:00,
2014-01-10 06:25:00,19.4,18.0,29.78,WSW,243,3.0,12.0,94,0.00,-SN,,0.00,WeatherDisplay:10.37,2014-01-10 12:25:00,
2014-01-10 06:30:00,19.5,18.0,29.77,SSW,200,2.0,9.0,94,0.00,-SN,,0.00,WeatherDisplay:10.37,2014-01-10 12:30:00,
2014-01-10 06:40:00,19.6,18.2,29.77,SW,234,3.0,10.0,94,0.00,-SN,,0.00,WeatherDisplay:10.37,2014-01-10 12:40:00,
2014-01-10 06:45:00,19.6,18.2,29.76,WSW,258,1.0,7.0,94,0.00,-SN,,0.00,WeatherDisplay:10.37,2014-01-10 12:45:00,
2014-01-10 06:50:00,19.7,18.3,29.77,SSW,205,2.0,8.0,94,0.00,-SN,,0.00,WeatherDisplay:10.37,2014-01-10 12:50:00,
2014-01-10 07:00:00,19.8,18.4,29.77,WSW,246,2.0,9.0,94,0.00,-SN,,0.00,WeatherDisplay:10.37,2014-01-10 13:00:00,
2014-01-10 07:10:00,19.9,18.5,29.77,SW,219,1.0,3.0,94,0.00,-SN,,0.00,WeatherDisplay:10.37,2014-01-10 13:10:00,
2014-01-10 07:15:00,20.0,18.6,29.77,SW,229,1.0,7.0,94,0.00,-SN,,0.00,WeatherDisplay:10.37,2014-01-10 13:15:00,
2014-01-10 07:20:00,20.0,18.6,29.77,SSE,149,2.0,5.0,94,0.00,-SN,,0.00,WeatherDisplay:10.37,2014-01-10 13:20:00,
2014-01-10 07:30:00,20.2,18.7,29.76,SSE,160,1.0,6.0,94,0.00,-SN,,0.00,WeatherDisplay:10.37,2014-01-10 13:30:00,
2014-01-10 07:40:00,20.2,18.8,29.76,South,171,1.0,7.0,94,0.00,-SN,,0.00,WeatherDisplay:10.37,2014-01-10 13:40:00,
2014-01-10 07:45:00,20.3,18.8,29.76,South,180,1.0,7.0,94,0.00,-SN,,0.00,WeatherDisplay:10.37,2014-01-10 13:45:00,
2014-01-10 07:50:00,20.3,18.9,29.75,SW,215,1.0,6.0,94,0.00,-SN,,0.00,WeatherDisplay:10.37,2014-01-10 13:50:00,
2014-01-10 08:00:00,20.4,19.0,29.75,NW,318,2.0,5.0,94,0.00,-SN,,0.00,WeatherDisplay:10.37,2014-01-10 14:00:00,
2014-01-10 08:10:00,20.5,19.0,29.75,WSW,249,1.0,4.0,94,0.00,-SN,,0.00,WeatherDisplay:10.37,2014-01-10 14:10:00,
2014-01-10 08:15:00,20.6,19.1,29.75,WSW,243,1.0,4.0,94,0.00,-SN,,0.00,WeatherDisplay:10.37,2014-01-10 14:15:00,
2014-01-10 08:20:00,20.6,19.2,29.76,WSW,245,1.0,12.0,94,0.00,-SN,,0.00,WeatherDisplay:10.37,2014-01-10 14:20:00,
2014-01-10 08:30:00,20.8,19.3,29.75,SE,144,2.0,6.0,94,0.00,-SN,,0.00,WeatherDisplay:10.37,2014-01-10 14:30:00,
2014-01-10 08:40:00,20.9,19.4,29.75,WNW,286,0.0,8.0,94,0.00,-SN,,0.00,WeatherDisplay:10.37,2014-01-10 14:40:00,
2014-01-10 08:45:00,21.0,19.5,29.75,SE,140,2.0,10.0,94,0.00,-SN,,0.00,WeatherDisplay:10.37,2014-01-10 14:45:00,
2014-01-10 08:50:00,21.1,19.6,29.75,ESE,113,1.0,6.0,94,0.00,-SN,,0.00,WeatherDisplay:10.37,2014-01-10 14:50:00,
2014-01-10 09:00:00,21.2,19.7,29.75,WSW,243,1.0,5.0,94,0.00,-SN,,0.00,WeatherDisplay:10.37,2014-01-10 15:00:00,
2014-01-10 09:10:00,21.4,19.9,29.75,NNW,334,2.0,7.0,94,0.00,-SN,,0.00,WeatherDisplay:10.37,2014-01-10 15:10:00,
2014-01-10 09:15:00,21.5,20.0,29.74,NW,304,2.0,7.0,94,0.00,-SN,,0.00,WeatherDisplay:10.37,2014-01-10 15:15:00,
2014-01-10 09:20:00,21.6,20.1,29.74,North,7,2.0,6.0,94,0.00,-SN,,0.00,WeatherDisplay:10.37,2014-01-10 15:20:00,
2014-01-10 09:30:00,21.7,20.2,29.74,SSW,198,1.0,4.0,94,0.00,-SN,,0.00,WeatherDisplay:10.37,2014-01-10 15:30:00,
2014-01-10 09:40:00,21.8,20.3,29.74,SW,215,1.0,6.0,94,0.00,-SN,,0.00,WeatherDisplay:10.37,2014-01-10 15:40:00,
2014-01-10 09:45:00,21.9,20.4,29.74,NE,55,1.0,5.0,94,0.00,-SN,,0.00,WeatherDisplay:10.37,2014-01-10 15:45:00,
2014-01-10 09:50:00,21.9,20.4,29.74,NW,306,0.0,8.0,94,0.00,-SN,,0.00,WeatherDisplay:10.37,2014-01-10 15:50:00,
2014-01-10 10:00:00,22.1,20.9,29.73,SSW,198,1.0,4.0,95,0.00,-SN,,0.00,WeatherDisplay:10.37,2014-01-10 16:00:00,
2014-01-10 10:10:00,22.4,21.2,29.73,WSW,250,1.0,4.0,95,0.00,-SN,,0.00,WeatherDisplay:10.37,2014-01-10 16:10:00,
2014-01-10 10:15:00,22.5,21.3,29.73,West,281,1.0,3.0,95,0.00,-SN,,0.00,WeatherDisplay:10.37,2014-01-10 16:15:00,
2014-01-10 10:20:00,22.6,21.4,29.73,WNW,298,2.0,4.0,95,0.00,-SN,,0.00,WeatherDisplay:10.37,2014-01-10 16:20:00,
2014-01-10 10:30:00,22.9,21.7,29.73,ESE,106,2.0,6.0,95,0.00,-SN,,0.00,WeatherDisplay:10.37,2014-01-10 16:30:00,
2014-01-10 10:40:00,23.1,21.9,29.73,WSW,240,2.0,10.0,95,0.00,-SN,,0.00,WeatherDisplay:10.37,2014-01-10 16:40:00,
2014-01-10 10:45:00,23.2,21.9,29.72,SSE,151,1.0,5.0,95,0.00,-SN,,0.00,WeatherDisplay:10.37,2014-01-10 16:45:00,
2014-01-10 10:50:00,23.2,22.0,29.72,West,269,3.0,8.0,95,0.00,-SN,,0.00,WeatherDisplay:10.37,2014-01-10 16:50:00,
2014-01-10 11:00:00,23.3,22.1,29.72,SSW,211,1.0,4.0,95,0.00,-SN,,0.00,WeatherDisplay:10.37,2014-01-10 17:00:00,
2014-01-10 11:10:00,23.5,22.3,29.72,WSW,239,3.0,9.0,95,0.00,-SN,,0.00,WeatherDisplay:10.37,2014-01-10 17:10:00,
2014-01-10 11:15:00,23.6,22.4,29.71,WSW,257,2.0,5.0,95,0.00,-SN,,0.00,WeatherDisplay:10.37,2014-01-10 17:15:00,
2014-01-10 11:20:00,23.8,22.6,29.71,SSW,211,3.0,7.0,95,0.00,-SN,,0.00,WeatherDisplay:10.37,2014-01-10 17:20:00,
2014-01-10 11:25:00,23.9,22.7,29.71,WSW,241,0.0,5.0,95,0.00,-SN,,0.00,WeatherDisplay:10.37,2014-01-10 17:25:00,
2014-01-10 11:30:00,24.0,22.8,29.71,WSW,238,1.0,6.0,95,0.00,-SN,,0.00,WeatherDisplay:10.37,2014-01-10 17:30:00,
2014-01-10 11:40:00,24.3,23.1,29.70,SSE,152,1.0,6.0,95,0.00,-SN,,0.00,WeatherDisplay:10.37,2014-01-10 17:40:00,
2014-01-10 11:45:00,24.5,23.3,29.70,SW,222,2.0,6.0,95,0.00,-SN,,0.00,WeatherDisplay:10.37,2014-01-10 17:45:00,
2014-01-10 11:50:00,24.6,23.4,29.70,SW,223,2.0,5.0,95,0.00,-SN,,0.00,WeatherDisplay:10.37,2014-01-10 17:50:00,
2014-01-10 12:00:00,24.8,23.6,29.69,South,186,2.0,6.0,95,0.00,-SN,,0.00,WeatherDisplay:10.37,2014-01-10 18:00:00,
2014-01-10 12:05:00,24.8,23.6,29.69,SW,225,1.0,5.0,95,0.00,-SN,,0.00,WeatherDisplay:10.37,2014-01-10 18:05:00,
2014-01-10 12:10:00,24.9,23.7,29.68,West,279,1.0,5.0,95,0.00,-SN,,0.00,WeatherDisplay:10.37,2014-01-10 18:10:00,
2014-01-10 12:15:00,25.0,23.8,29.68,West,275,2.0,5.0,95,0.00,-SN,,0.00,WeatherDisplay:10.37,2014-01-10 18:15:00,
2014-01-10 12:20:00,25.2,24.0,29.68,SW,236,2.0,7.0,95,0.00,-SN,,0.00,WeatherDisplay:10.37,2014-01-10 18:20:00,
2014-01-10 12:25:00,25.3,24.1,29.68,SW,214,2.0,8.0,95,0.00,-SN,,0.00,WeatherDisplay:10.37,2014-01-10 18:25:00,
2014-01-10 12:30:00,25.3,24.1,29.67,SSW,208,2.0,6.0,95,0.00,-SN,,0.00,WeatherDisplay:10.37,2014-01-10 18:30:00,
2014-01-10 12:40:00,25.4,24.2,29.66,West,274,2.0,5.0,95,0.00,-SN,,0.00,WeatherDisplay:10.37,2014-01-10 18:40:00,
2014-01-10 12:45:00,25.5,24.3,29.66,SW,217,2.0,7.0,95,0.00,-SN,,0.00,WeatherDisplay:10.37,2014-01-10 18:45:00,
2014-01-10 12:50:00,25.6,24.4,29.66,SW,235,1.0,4.0,95,0.00,-SN,,0.00,WeatherDisplay:10.37,2014-01-10 18:50:00,
2014-01-10 12:55:00,25.6,24.4,29.65,WSW,242,1.0,7.0,95,0.00,-SN,,0.00,WeatherDisplay:10.37,2014-01-10 18:55:00,
2014-01-10 13:00:00,25.7,24.5,29.65,SW,223,2.0,5.0,95,0.00,-SN,,0.00,WeatherDisplay:10.37,2014-01-10 19:00:00,
2014-01-10 13:10:00,25.8,24.6,29.65,WSW,243,1.0,9.0,95,0.00,-SN,,0.00,WeatherDisplay:10.37,2014-01-10 19:10:00,
2014-01-10 13:15:00,25.8,24.6,29.65,SW,225,2.0,7.0,95,0.00,-SN,,0.00,WeatherDisplay:10.37,2014-01-10 19:15:00,
2014-01-10 13:20:00,25.9,24.7,29.64,SW,230,2.0,8.0,95,0.00,-SN,,0.00,WeatherDisplay:10.37,2014-01-10 19:20:00,
2014-01-10 13:25:00,26.0,24.7,29.64,WSW,241,2.0,5.0,95,0.00,-SN,,0.00,WeatherDisplay:10.37,2014-01-10 19:25:00,
2014-01-10 13:30:00,26.1,24.9,29.64,SW,233,1.0,7.0,95,0.00,-SN,,0.00,WeatherDisplay:10.37,2014-01-10 19:30:00,
2014-01-10 13:40:00,26.1,24.6,29.64,SW,222,1.0,5.0,94,0.00,-SN,,0.00,WeatherDisplay:10.37,2014-01-10 19:40:00,
2014-01-10 13:45:00,26.1,24.6,29.64,SW,220,1.0,8.0,94,0.00,-SN,,0.00,WeatherDisplay:10.37,2014-01-10 19:45:00,
2014-01-10 13:50:00,26.1,24.8,29.64,SSW,213,1.0,10.0,95,0.00,-SN,,0.00,WeatherDisplay:10.37,2014-01-10 19:50:00,
2014-01-10 14:00:00,26.1,24.9,29.63,SW,224,2.0,5.0,95,0.00,-SN,,0.00,WeatherDisplay:10.37,2014-01-10 20:00:00,
2014-01-10 14:10:00,26.3,25.0,29.63,WSW,249,2.0,6.0,95,0.00,-SN,,0.00,WeatherDisplay:10.37,2014-01-10 20:10:00,
2014-01-10 14:20:00,26.3,25.1,29.63,WSW,243,1.0,5.0,95,0.00,-SN,,0.00,WeatherDisplay:10.37,2014-01-10 20:20:00,
2014-01-10 14:30:00,26.4,25.1,29.62,SW,235,2.0,5.0,95,0.00,-SN,,0.00,WeatherDisplay:10.37,2014-01-10 20:30:00,
2014-01-10 14:40:00,26.5,25.3,29.62,WSW,245,1.0,6.0,95,0.00,-SN,,0.00,WeatherDisplay:10.37,2014-01-10 20:40:00,
2014-01-10 14:45:00,26.5,25.3,29.61,WSW,241,1.0,2.0,95,0.00,-SN,,0.00,WeatherDisplay:10.37,2014-01-10 20:45:00,
2014-01-10 14:50:00,26.5,25.3,29.61,WSW,258,0.0,6.0,95,0.00,-SN,,0.00,WeatherDisplay:10.37,2014-01-10 20:50:00,
2014-01-10 15:00:00,26.6,25.4,29.61,WSW,245,1.0,5.0,95,0.00,-SN,,0.00,WeatherDisplay:10.37,2014-01-10 21:00:00,
2014-01-10 15:05:00,26.6,25.4,29.62,WSW,237,2.0,6.0,95,0.00,-SN,,0.00,WeatherDisplay:10.37,2014-01-10 21:05:00,
2014-01-10 15:10:00,26.7,25.5,29.62,SW,231,2.0,6.0,95,0.00,-SN,,0.00,WeatherDisplay:10.37,2014-01-10 21:10:00,
2014-01-10 15:15:00,26.7,25.5,29.61,WSW,247,1.0,5.0,95,0.00,-SN,,0.00,WeatherDisplay:10.37,2014-01-10 21:15:00,
2014-01-10 15:20:00,26.7,25.5,29.61,WSW,242,1.0,3.0,95,0.00,-SN,,0.00,WeatherDisplay:10.37,2014-01-10 21:20:00,
2014-01-10 15:30:00,26.7,25.4,29.62,West,261,2.0,7.0,95,0.00,-SN,,0.00,WeatherDisplay:10.37,2014-01-10 21:30:00,
2014-01-10 15:40:00,26.6,25.4,29.62,WSW,237,1.0,4.0,95,0.00,-SN,,0.00,WeatherDisplay:10.37,2014-01-10 21:40:00,
2014-01-10 15:45:00,26.7,25.5,29.61,SW,220,0.0,8.0,95,0.00,-SN,,0.00,WeatherDisplay:10.37,2014-01-10 21:45:00,
2014-01-10 15:50:00,26.7,25.5,29.61,SW,217,1.0,7.0,95,0.00,-SN,,0.00,WeatherDisplay:10.37,2014-01-10 21:50:00,
2014-01-10 16:00:00,26.6,25.4,29.61,SW,229,2.0,10.0,95,0.00,-SN,,0.00,WeatherDisplay:10.37,2014-01-10 22:00:00,
2014-01-10 16:10:00,26.6,25.6,29.61,WSW,241,1.0,5.0,96,0.00,-SN,,0.00,WeatherDisplay:10.37,2014-01-10 22:10:00,
2014-01-10 16:15:00,26.6,25.6,29.61,WSW,240,0.0,4.0,96,0.00,-SN,,0.00,WeatherDisplay:10.37,2014-01-10 22:15:00,
2014-01-10 16:20:00,26.5,25.5,29.60,SW,236,1.0,4.0,96,0.00,-SN,,0.00,WeatherDisplay:10.37,2014-01-10 22:20:00,
2014-01-10 16:30:00,26.5,25.5,29.60,WSW,258,1.0,4.0,96,0.00,-SN,,0.00,WeatherDisplay:10.37,2014-01-10 22:30:00,
2014-01-10 16:40:00,26.5,25.5,29.60,SW,231,1.0,5.0,96,0.00,-SN,,0.00,WeatherDisplay:10.37,2014-01-10 22:40:00,
2014-01-10 16:45:00,26.5,25.5,29.60,SW,217,1.0,3.0,96,0.00,-SN,,0.00,WeatherDisplay:10.37,2014-01-10 22:45:00,
2014-01-10 16:50:00,26.5,25.5,29.60,WSW,243,0.0,3.0,96,0.00,-SN,,0.00,WeatherDisplay:10.37,2014-01-10 22:50:00,
2014-01-10 17:00:00,26.5,25.5,29.61,SW,236,1.0,3.0,96,0.00,-SN,,0.00,WeatherDisplay:10.37,2014-01-10 23:00:00,
2014-01-10 17:10:00,26.5,25.5,29.60,SW,235,1.0,6.0,96,0.00,-SN,,0.00,WeatherDisplay:10.37,2014-01-10 23:10:00,
2014-01-10 17:15:00,26.5,25.5,29.60,SW,232,0.0,4.0,96,0.00,-SN,,0.00,WeatherDisplay:10.37,2014-01-10 23:15:00,
2014-01-10 17:20:00,26.5,25.5,29.60,SSW,204,1.0,3.0,96,0.00,-SN,,0.00,WeatherDisplay:10.37,2014-01-10 23:20:00,
2014-01-10 17:25:00,26.5,25.5,29.60,ESE,123,0.0,4.0,96,0.00,-SN,,0.00,WeatherDisplay:10.37,2014-01-10 23:25:00,
2014-01-10 17:30:00,26.5,25.5,29.60,SW,218,0.0,5.0,96,0.00,-SN,,0.00,WeatherDisplay:10.37,2014-01-10 23:30:00,
2014-01-10 17:40:00,26.5,25.5,29.60,WSW,246,1.0,5.0,96,0.00,-SN,,0.00,WeatherDisplay:10.37,2014-01-10 23:40:00,
2014-01-10 17:45:00,26.5,25.5,29.60,WSW,242,2.0,4.0,96,0.00,-SN,,0.00,WeatherDisplay:10.37,2014-01-10 23:45:00,
2014-01-10 17:50:00,26.5,25.5,29.60,WSW,247,0.0,3.0,96,0.00,-SN,,0.00,WeatherDisplay:10.37,2014-01-10 23:50:00,
2014-01-10 18:00:00,26.5,25.5,29.60,WSW,237,2.0,5.0,96,0.00,-SN,,0.00,WeatherDisplay:10.37,2014-01-11 00:00:00,
2014-01-10 18:10:00,26.6,25.6,29.59,SSW,195,1.0,5.0,96,0.00,-SN,,0.00,WeatherDisplay:10.37,2014-01-11 00:10:00,
2014-01-10 18:15:00,26.6,25.6,29.59,SSW,206,0.0,3.0,96,0.00,-SN,,0.00,WeatherDisplay:10.37,2014-01-11 00:15:00,
2014-01-10 18:20:00,26.6,25.6,29.59,West,259,0.0,2.0,96,0.00,-SN,,0.00,WeatherDisplay:10.37,2014-01-11 00:20:00,
2014-01-10 18:25:00,26.6,25.6,29.59,WSW,256,1.0,3.0,96,0.00,-SN,,0.00,WeatherDisplay:10.37,2014-01-11 00:25:00,
2014-01-10 18:30:00,26.6,25.6,29.59,SW,235,0.0,5.0,96,0.00,-SN,,0.00,WeatherDisplay:10.37,2014-01-11 00:30:00,
2014-01-10 18:40:00,26.6,25.6,29.58,WSW,250,1.0,4.0,96,0.00,-SN,,0.00,WeatherDisplay:10.37,2014-01-11 00:40:00,
2014-01-10 18:45:00,26.6,25.6,29.58,SW,234,2.0,4.0,96,0.00,-SN,,0.00,WeatherDisplay:10.37,2014-01-11 00:45:00,
2014-01-10 18:50:00,26.6,25.6,29.58,WSW,241,0.0,3.0,96,0.00,-SN,,0.00,WeatherDisplay:10.37,2014-01-11 00:50:00,
2014-01-10 18:55:00,26.6,25.6,29.58,WSW,249,0.0,4.0,96,0.00,-SN,,0.00,WeatherDisplay:10.37,2014-01-11 00:55:00,
2014-01-10 19:00:00,26.6,25.9,29.58,WSW,240,0.0,3.0,97,0.00,-SN,,0.00,WeatherDisplay:10.37,2014-01-11 01:00:00,
2014-01-10 19:10:00,26.6,25.9,29.58,WSW,244,0.0,3.0,97,0.00,-SN,,0.00,WeatherDisplay:10.37,2014-01-11 01:10:00,
2014-01-10 19:15:00,26.6,25.9,29.58,SW,233,0.0,5.0,97,0.00,-SN,,0.00,WeatherDisplay:10.37,2014-01-11 01:15:00,
2014-01-10 19:20:00,26.6,25.9,29.57,SW,236,1.0,5.0,97,0.00,-SN,,0.00,WeatherDisplay:10.37,2014-01-11 01:20:00,
2014-01-10 19:30:00,26.6,25.9,29.58,SW,232,1.0,3.0,97,0.00,-SN,,0.00,WeatherDisplay:10.37,2014-01-11 01:30:00,
2014-01-10 19:40:00,26.7,26.0,29.57,WSW,238,0.0,2.0,97,0.00,-SN,,0.00,WeatherDisplay:10.37,2014-01-11 01:40:00,
2014-01-10 19:45:00,26.7,26.0,29.57,WSW,244,0.0,2.0,97,0.00,-SN,,0.00,WeatherDisplay:10.37,2014-01-11 01:45:00,
2014-01-10 19:50:00,26.7,26.0,29.57,WSW,241,0.0,5.0,97,0.00,-SN,,0.00,WeatherDisplay:10.37,2014-01-11 01:50:00,
2014-01-10 19:55:00,26.7,26.0,29.57,WSW,241,1.0,2.0,97,0.00,-SN,,0.00,WeatherDisplay:10.37,2014-01-11 01:55:00,
2014-01-10 20:00:00,26.7,26.0,29.57,WSW,250,0.0,1.0,97,0.00,-SN,,0.00,WeatherDisplay:10.37,2014-01-11 02:00:00,
2014-01-10 20:10:00,26.8,26.1,29.57,SW,235,0.0,3.0,97,0.00,-SN,,0.00,WeatherDisplay:10.37,2014-01-11 02:10:00,
2014-01-10 20:15:00,26.7,26.0,29.57,WSW,237,0.0,2.0,97,0.00,-SN,,0.00,WeatherDisplay:10.37,2014-01-11 02:15:00,
2014-01-10 20:20:00,26.8,26.0,29.57,WSW,241,1.0,2.0,97,0.00,-SN,,0.00,WeatherDisplay:10.37,2014-01-11 02:20:00,
2014-01-10 20:30:00,26.8,26.1,29.56,SW,226,0.0,3.0,97,0.00,-SN,,0.00,WeatherDisplay:10.37,2014-01-11 02:30:00,
2014-01-10 20:40:00,26.8,26.1,29.56,WSW,243,1.0,4.0,97,0.00,-SN,,0.00,WeatherDisplay:10.37,2014-01-11 02:40:00,
2014-01-10 20:45:00,26.8,26.1,29.56,SW,234,0.0,1.0,97,0.00,-SN,,0.00,WeatherDisplay:10.37,2014-01-11 02:45:00,
2014-01-10 20:50:00,26.9,26.2,29.56,WSW,237,1.0,3.0,97,0.00,-SN,,0.00,WeatherDisplay:10.37,2014-01-11 02:50:00,
2014-01-10 21:00:00,27.0,26.3,29.56,WSW,244,1.0,3.0,97,0.00,-SN,,0.00,WeatherDisplay:10.37,2014-01-11 03:00:00,
2014-01-10 21:10:00,27.0,26.3,29.55,SW,229,2.0,3.0,97,0.00,-SN,,0.00,WeatherDisplay:10.37,2014-01-11 03:10:00,
2014-01-10 21:15:00,27.1,26.3,29.55,WSW,248,1.0,2.0,97,0.00,-SN,,0.00,WeatherDisplay:10.37,2014-01-11 03:15:00,
2014-01-10 21:20:00,27.1,26.4,29.55,West,264,1.0,3.0,97,0.00,-SN,,0.00,WeatherDisplay:10.37,2014-01-11 03:20:00,
2014-01-10 21:30:00,27.2,26.4,29.55,WSW,243,0.0,1.0,97,0.00,-SN,,0.00,WeatherDisplay:10.37,2014-01-11 03:30:00,
2014-01-10 21:40:00,27.2,26.5,29.55,WSW,245,0.0,3.0,97,0.00,-SN,,0.00,WeatherDisplay:10.37,2014-01-11 03:40:00,
2014-01-10 21:45:00,27.3,26.6,29.55,WSW,246,1.0,3.0,97,0.00,-SN,,0.00,WeatherDisplay:10.37,2014-01-11 03:45:00,
2014-01-10 21:55:00,27.3,26.6,29.55,WSW,250,1.0,3.0,97,0.00,-SN,,0.00,WeatherDisplay:10.37,2014-01-11 03:55:00,
2014-01-10 22:05:00,27.4,26.7,29.55,WSW,251,2.0,4.0,97,0.00,-SN,,0.00,WeatherDisplay:10.37,2014-01-11 04:05:00,
2014-01-10 22:10:00,27.4,26.7,29.55,WSW,251,1.0,3.0,97,0.00,-SN,,0.00,WeatherDisplay:10.37,2014-01-11 04:10:00,
2014-01-10 22:15:00,27.5,26.7,29.55,WSW,258,0.0,3.0,97,0.00,-SN,,0.00,WeatherDisplay:10.37,2014-01-11 04:15:00,
2014-01-10 22:20:00,27.5,26.8,29.54,West,262,3.0,7.0,97,0.00,-SN,,0.00,WeatherDisplay:10.37,2014-01-11 04:20:00,
2014-01-10 22:25:00,27.5,26.8,29.54,West,266,0.0,2.0,97,0.00,-SN,,0.00,WeatherDisplay:10.37,2014-01-11 04:25:00,
2014-01-10 22:30:00,27.5,26.8,29.54,West,262,1.0,3.0,97,0.00,-SN,,0.00,WeatherDisplay:10.37,2014-01-11 04:30:00,
2014-01-10 22:40:00,27.6,26.9,29.54,SW,236,1.0,6.0,97,0.00,-SN,,0.00,WeatherDisplay:10.37,2014-01-11 04:40:00,
2014-01-10 22:45:00,27.6,26.9,29.54,WSW,243,0.0,4.0,97,0.00,-SN,,0.00,WeatherDisplay:10.37,2014-01-11 04:45:00,
2014-01-10 22:50:00,27.6,26.9,29.53,WSW,245,2.0,4.0,97,0.00,-SN,,0.00,WeatherDisplay:10.37,2014-01-11 04:50:00,
2014-01-10 23:00:00,27.7,27.0,29.53,WSW,239,1.0,3.0,97,0.00,-SN,,0.00,WeatherDisplay:10.37,2014-01-11 05:00:00,
2014-01-10 23:05:00,27.6,26.9,29.53,WSW,246,0.0,3.0,97,0.00,-SN,,0.00,WeatherDisplay:10.37,2014-01-11 05:05:00,
2014-01-10 23:10:00,27.7,27.0,29.53,WSW,253,1.0,3.0,97,0.00,-SN,,0.00,WeatherDisplay:10.37,2014-01-11 05:10:00,
2014-01-10 23:15:00,27.7,27.0,29.53,West,260,1.0,2.0,97,0.00,-SN,,0.00,WeatherDisplay:10.37,2014-01-11 05:15:00,
2014-01-10 23:20:00,27.7,27.0,29.53,WSW,257,1.0,3.0,97,0.00,-SN,,0.00,WeatherDisplay:10.37,2014-01-11 05:20:00,
2014-01-10 23:30:00,27.7,27.0,29.53,WSW,242,0.0,2.0,97,0.00,-SN,,0.00,WeatherDisplay:10.37,2014-01-11 05:30:00,
2014-01-10 23:35:00,27.7,27.0,29.53,WSW,246,0.0,2.0,97,0.00,-SN,,0.00,WeatherDisplay:10.37,2014-01-11 05:35:00,
2014-01-10 23:40:00,27.7,27.0,29.53,WSW,245,1.0,4.0,97,0.00,-SN,,0.00,WeatherDisplay:10.37,2014-01-11 05:40:00,
2014-01-10 23:45:00,27.7,27.0,29.53,WSW,238,1.0,2.0,97,0.00,-SN,,0.00,WeatherDisplay:10.37,2014-01-11 05:45:00,
2014-01-10 23:50:00,27.7,27.0,29.53,SW,227,1.0,2.0,97,0.00,-SN,,0.00,WeatherDisplay:10.37,2014-01-11 05:50:00,